[[{"header":{"parameterUnit":"m.s-1","parameterCategory":1,"la1":30.2991,"la2":30.254,"lo1":-89.0895,"lo2":-89.0444,"dy":0.0017,"dx":0.0017,"nx":28,"ny":28,"refTime":"2025-04-27T03:00:00:Z","depth":0,"parameterNumber":2,"parameterNumberName":"U-component_of_WINDS"},"data":[0,0,0,0,0,0,0,0,0,0,0,0,0,0,0,0,0,0,0,0,0,0,0,0,0,0,0,0,0,0,0,0,0,0,0,0,0,0,0,0,0,0,0,0,0,0,0,0,0,0,0,0,0,0,0,0,0,0,-0.0207,-0.0207,0,-0.0166,-0.0165,-0.0165,-0.0191,-0.0193,-0.0194,-0.0195,-0.0147,-0.0144,-0.0142,0,0,0,0,0,0,0,0,0,0,0,0,0,-0.0306,-0.0304,-0.0207,-0.0207,-0.0206,-0.0166,-0.0165,-0.0165,-0.0191,-0.0193,-0.0194,-0.0196,-0.0148,-0.0145,-0.0142,0,0,0,0,0,0,0,0,0,0,0,0,0,-0.0264,-0.0304,-0.0208,-0.0215,-0.0215,-0.0166,-0.0165,-0.0165,-0.0191,-0.0193,-0.0195,-0.0196,-0.0149,-0.0145,-0.0141,-0.0081,0,0,-0.013,-0.0128,0,0,0,0,0,0,0,0,-0.0266,-0.026,-0.0214,-0.0214,-0.0214,-0.0186,-0.0182,-0.0136,-0.019,-0.02,-0.0195,-0.0197,-0.0158,-0.0154,-0.0141,-0.0079,-0.0077,-0.013,-0.0128,-0.0126,-0.0125,0,0,0,0,0,0,0,-0.0269,-0.0262,-0.0191,-0.0214,-0.0214,-0.0219,-0.0215,-0.0174,-0.0169,-0.0199,-0.0201,-0.0196,-0.0158,-0.0145,-0.014,-0.0076,-0.013,-0.0127,-0.0124,-0.0123,0.0037,0.0039,0,0,0,0,0,0,-0.0272,-0.0264,-0.0192,-0.019,-0.0246,-0.0216,-0.0211,-0.0193,-0.0169,-0.0167,-0.0194,-0.0197,-0.015,-0.0145,-0.0139,-0.0067,-0.0126,-0.0123,-0.012,0.0035,0.0038,0.004,0,0,0,0,0,0,-0.0274,-0.0265,-0.0194,-0.0227,-0.0219,-0.0212,-0.0191,-0.0191,-0.0178,-0.0166,-0.0164,-0.0182,-0.0151,-0.0144,-0.0096,-0.0066,-0.0121,-0.0118,0.0033,0.0036,0.0039,0.0078,0,0,0,0,0,0,-0.0277,-0.0266,-0.0243,-0.0227,-0.0217,-0.0152,-0.0189,-0.0189,-0.0172,-0.0176,-0.0154,-0.0152,-0.0152,-0.0101,-0.0092,-0.0061,-0.0115,0.003,0.0034,0.0038,0.0074,0.0082,0.0089,0,0,0,0,0,-0.028,-0.0233,-0.0242,-0.0233,-0.0189,-0.0151,-0.0145,-0.0148,-0.017,-0.0147,-0.0139,-0.0152,-0.0071,-0.0096,-0.0086,-0.0054,0.0028,0.0033,0.0038,0.0071,0.008,0.0088,0,0,0,0,0,0,-0.0243,-0.023,-0.0241,-0.0187,-0.017,-0.0155,-0.0126,-0.0137,-0.0112,-0.0116,-0.012,-0.0115,-0.0065,-0.0055,-0.0083,0.0005,-0.0024,-0.0018,-0.0003,0.0006,0.0014,0.0011,-0.0112,0,0,0,0,0,-0.0229,-0.0201,-0.0191,-0.0144,-0.0135,-0.0132,-0.0115,-0.012,-0.0102,-0.0094,-0.0083,-0.0063,-0.0033,-0.0013,0.0015,0.0074,0.0079,0.0101,0.0109,0.0114,0.0121,0.0153,0.0163,0.0055,0.0055,0.0055,0,0,-0.0199,-0.0189,-0.017,-0.0136,-0.0124,-0.0093,-0.0126,-0.0091,-0.0068,-0.0088,-0.0042,-0.0034,-0.0012,0.0042,0.0066,0.0052,0.0151,0.012,0.0125,0.0129,0.0159,0.0169,0.0178,0.0058,0.0058,0.0057,0,0,-0.0128,-0.0118,-0.0078,-0.0066,-0.0048,-0.0046,-0.0037,-0.0021,-0.0017,0.0028,0.0014,0.0042,0.0093,0.0109,0.0124,0.0197,0.0186,0.0207,0.0246,0.0277,0.0285,0.0293,0.032,0.0329,0.0213,0.0213,0.0213,0,-0.0092,-0.0048,-0.0056,-0.0021,-0.0006,-0.0026,0.0015,0.0028,0.0056,0.0067,0.005,0.0113,0.0126,0.0183,0.0201,0.0213,0.0224,0.0205,0.0284,0.0292,0.0299,0.0324,0.0334,0.0215,0.0215,0.0215,0.0215,0,-0.0005,0.0026,0.0056,0.0081,0.0099,0.0137,0.0135,0.0155,0.0148,0.0151,0.0198,0.0212,0.0242,0.0255,0.025,0.0311,0.0301,0.0284,0.0255,0.0312,0.0336,0.0345,0.0219,0.0218,0.0217,0.0217,0,0,0.0094,0.011,0.0122,0.0132,0.015,0.0174,0.0211,0.0238,0.0255,0.0274,0.0306,0.0348,0.0331,0.0348,0.0344,0.0371,0.0429,0.0351,0.0351,0.0365,0.0497,0.0511,0.0522,0.042,0.0422,0.0423,0.0496,0,0.0166,0.0228,0.022,0.028,0.0309,0.0289,0.032,0.0335,0.0338,0.0364,0.0368,0.0399,0.0374,0.0384,0.0409,0.0416,0.0455,0.0411,0.0451,0.0452,0.0447,0.0535,0.055,0.0618,0.0505,0.0506,0.0508,0,0.026,0.0279,0.0341,0.0352,0.0364,0.0393,0.0416,0.044,0.0457,0.0457,0.0474,0.0465,0.0502,0.047,0.0522,0.0492,0.0507,0.0513,0.0515,0.052,0.0485,0.0544,0.0639,0.065,0.0522,0.0521,0.052,0,0.0326,0.0368,0.041,0.0419,0.0434,0.0454,0.0461,0.0475,0.0491,0.0512,0.0523,0.0549,0.0564,0.0584,0.0582,0.0559,0.0635,0.0603,0.0638,0.0638,0.0657,0.0656,0.0757,0.0664,0.0664,0.0664,0.0664,0,0.0409,0.0448,0.044,0.0466,0.0509,0.0499,0.0543,0.0547,0.0559,0.0587,0.0571,0.0598,0.0593,0.0619,0.0618,0.0661,0.0668,0.067,0.067,0.0673,0.0673,0.0684,0.068,0.0667,0.0666,0.0666,0.0665,0,0.0492,0.0488,0.0532,0.054,0.0543,0.0575,0.0583,0.0608,0.0608,0.0643,0.0651,0.0653,0.0683,0.0682,0.0717,0.0716,0.077,0.0763,0.0764,0.0763,0.0798,0.0796,0.0912,0.0928,0.0823,0.0824,0.0825,0,0.0546,0.0575,0.0585,0.0601,0.0609,0.0635,0.0651,0.0642,0.066,0.0678,0.0701,0.0729,0.0752,0.0801,0.0807,0.0833,0.0828,0.0867,0.0832,0.0834,0.083,0.0829,0.0832,0.0875,0.0876,0.0877,0.0877,0,0.0642,0.0638,0.066,0.0681,0.0699,0.0716,0.0731,0.0746,0.0739,0.0759,0.0788,0.0805,0.0839,0.0868,0.0893,0.0901,0.0889,0.0888,0.0897,0.0902,0.0901,0.0903,0.0784,0.0886,0.0885,0.0884,0.0884,0.0884,0.0713,0.0737,0.0747,0.0772,0.0782,0.0796,0.0819,0.0821,0.0845,0.0871,0.0864,0.0897,0.0911,0.0943,0.0954,0.098,0.0967,0.0981,0.0985,0.0989,0.0993,0.0895,0.0985,0.0984,0.0984,0.0984,0.0984,0,0.0809,0.0814,0.0836,0.0857,0.0876,0.0859,0.0874,0.0893,0.0921,0.0934,0.0955,0.0989,0.1015,0.1021,0.1047,0.1067,0.1062,0.1075,0.1074,0.1076,0.1003,0.0992,0.1078,0.1078,0.1078,0.1078,0.1078,0.1078,0.0862,0.0902,0.0898,0.0943,0.0948,0.0978,0.0988,0.1001,0.1011,0.1049,0.107,0.1072,0.1083,0.1109,0.1133,0.1134,0.1145,0.116,0.1159,0.1091,0.1082,0.1073,0.1063,0.1162,0.1162,0.123,0.1231,0.1231]},{"header":{"parameterUnit":"m.s-1","parameterCategory":1,"la1":30.2991,"la2":30.254,"lo1":-89.0895,"lo2":-89.0444,"dy":0.0017,"dx":0.0017,"nx":28,"ny":28,"refTime":"2025-04-27T03:00:00:Z","depth":0,"parameterNumber":3,"parameterNumberName":"V-component_of_WINDS"},"data":[0,0,0,0,0,0,0,0,0,0,0,0,0,0,0,0,0,0,0,0,0,0,0,0,0,0,0,0,0,0,0,0,0,0,0,0,0,0,0,0,0,0,0,0,0,0,0,0,0,0,0,0,0,0,0,0,0,0,0.8923,0.8924,0,0.9026,0.9027,0.9028,0.9061,0.9061,0.906,0.906,0.9165,0.9168,0.9171,0,0,0,0,0,0,0,0,0,0,0,0,0,0.8756,0.8758,0.8922,0.8924,0.8925,0.9025,0.9027,0.9028,0.9061,0.9061,0.906,0.906,0.9164,0.9168,0.9172,0,0,0,0,0,0,0,0,0,0,0,0,0,0.884,0.8759,0.8922,0.8954,0.8958,0.9025,0.9027,0.9029,0.9062,0.9061,0.906,0.906,0.9163,0.9168,0.9172,0.9216,0,0,0.9187,0.9189,0,0,0,0,0,0,0,0,0.8835,0.8846,0.8948,0.8952,0.8956,0.903,0.9006,0.9091,0.9062,0.9022,0.906,0.9059,0.9121,0.9129,0.915,0.9221,0.9225,0.9188,0.919,0.9193,0.9194,0,0,0,0,0,0,0,0.8829,0.8842,0.8963,0.8949,0.8954,0.8963,0.8974,0.9023,0.9074,0.9025,0.9028,0.904,0.9123,0.9145,0.9152,0.9227,0.9187,0.9192,0.9195,0.9197,0.934,0.9341,0,0,0,0,0,0,0.8818,0.8837,0.896,0.8966,0.8893,0.8967,0.8979,0.9007,0.9074,0.9083,0.904,0.9041,0.9137,0.9147,0.9156,0.9213,0.9192,0.9197,0.92,0.9339,0.934,0.9341,0,0,0,0,0,0,0.8814,0.8829,0.8956,0.8902,0.8919,0.897,0.9001,0.9009,0.9032,0.9085,0.9094,0.9054,0.9137,0.9149,0.9201,0.9217,0.9199,0.9204,0.9338,0.9339,0.9341,0.9324,0,0,0,0,0,0,0.881,0.8827,0.8844,0.8903,0.8922,0.8999,0.9002,0.9012,0.904,0.9042,0.91,0.9109,0.9137,0.9194,0.9206,0.9223,0.9207,0.9337,0.9339,0.934,0.9324,0.9325,0.9326,0,0,0,0,0,0.8803,0.8835,0.8845,0.8859,0.8944,0.8999,0.9011,0.9043,0.9041,0.9058,0.9093,0.9107,0.9213,0.9199,0.9213,0.9231,0.9336,0.9338,0.934,0.9323,0.9325,0.9326,0,0,0,0,0,0,0.8777,0.8843,0.8855,0.8906,0.8947,0.9005,0.9028,0.9044,0.9086,0.9086,0.9124,0.9137,0.9186,0.9214,0.9197,0.9278,0.9275,0.928,0.9258,0.926,0.9261,0.9253,0.9211,0,0,0,0,0,0.8777,0.8816,0.8872,0.8913,0.8932,0.8977,0.9002,0.9024,0.9067,0.9085,0.9123,0.9165,0.9208,0.9235,0.9277,0.9328,0.9342,0.9348,0.9349,0.935,0.9354,0.9384,0.9387,0.9348,0.9348,0.9348,0,0,0.8778,0.8819,0.8841,0.8908,0.8942,0.8983,0.8991,0.9033,0.9063,0.9091,0.9142,0.9172,0.9221,0.9273,0.9297,0.9298,0.9368,0.9352,0.9352,0.9356,0.9386,0.939,0.9393,0.9349,0.9349,0.9349,0,0,0.88,0.8835,0.8872,0.8907,0.8958,0.8988,0.8997,0.9053,0.9073,0.9126,0.9148,0.9184,0.9257,0.9292,0.9319,0.9355,0.937,0.9368,0.9374,0.9403,0.9406,0.9409,0.9422,0.9427,0.9371,0.9371,0.9371,0,0.8794,0.8856,0.889,0.8931,0.896,0.8988,0.9026,0.9058,0.9121,0.914,0.914,0.9232,0.9267,0.9328,0.9337,0.9358,0.937,0.9361,0.9403,0.9406,0.9409,0.9423,0.9428,0.9371,0.9371,0.9371,0.9371,0,0.8847,0.8889,0.8913,0.8974,0.9005,0.9045,0.9086,0.9114,0.9133,0.9162,0.9216,0.9259,0.9311,0.9327,0.9346,0.9391,0.9389,0.9395,0.9393,0.9412,0.9425,0.9431,0.937,0.937,0.937,0.9371,0,0,0.8855,0.8934,0.8942,0.8971,0.903,0.9063,0.9105,0.9156,0.918,0.9222,0.9258,0.932,0.9326,0.9357,0.938,0.9405,0.9432,0.9408,0.941,0.9411,0.9485,0.948,0.9486,0.9442,0.9443,0.9444,0.9481,0,0.8885,0.896,0.8992,0.9052,0.9092,0.9119,0.9156,0.9196,0.9225,0.9263,0.9295,0.9339,0.9343,0.9362,0.9388,0.9423,0.9447,0.9421,0.9476,0.9478,0.9463,0.9493,0.9488,0.9521,0.9486,0.9487,0.9488,0,0.893,0.8973,0.9037,0.9093,0.9111,0.9143,0.9193,0.9229,0.9276,0.9295,0.933,0.9352,0.9397,0.9392,0.9455,0.9436,0.9461,0.9482,0.9484,0.9491,0.9484,0.9501,0.9532,0.9537,0.9496,0.9496,0.9495,0,0.893,0.9004,0.9053,0.9076,0.9142,0.9164,0.9192,0.9238,0.9267,0.9311,0.933,0.9379,0.9405,0.9442,0.9477,0.947,0.9537,0.9535,0.9555,0.9554,0.9568,0.9567,0.9604,0.9583,0.9583,0.9583,0.9582,0,0.8961,0.8999,0.9054,0.9084,0.9128,0.9165,0.9208,0.9238,0.9279,0.9316,0.9342,0.9376,0.9419,0.9459,0.9486,0.9535,0.9546,0.9563,0.957,0.9561,0.9559,0.9578,0.9577,0.9584,0.9584,0.9583,0.9583,0,0.8969,0.9007,0.9061,0.9119,0.9135,0.9165,0.9215,0.9245,0.9275,0.9321,0.9334,0.9382,0.943,0.9468,0.9531,0.9549,0.96,0.9608,0.9584,0.9588,0.9606,0.9604,0.9658,0.9667,0.9639,0.9639,0.9639,0,0.8986,0.9016,0.9077,0.9104,0.9132,0.9174,0.9204,0.9242,0.9272,0.9328,0.9352,0.9402,0.9444,0.9519,0.956,0.9608,0.9617,0.9633,0.9625,0.9615,0.9618,0.9616,0.962,0.9633,0.9634,0.9634,0.9634,0,0.9012,0.903,0.9072,0.9121,0.9156,0.9196,0.9237,0.9258,0.9303,0.9336,0.9385,0.9418,0.9482,0.9532,0.9584,0.9614,0.9632,0.9636,0.9643,0.9635,0.962,0.9629,0.9588,0.9635,0.9635,0.9635,0.9634,0.9634,0.9026,0.9055,0.9102,0.9149,0.9184,0.9222,0.9253,0.9288,0.933,0.9385,0.9405,0.9456,0.9503,0.9576,0.9606,0.9647,0.9648,0.9658,0.9661,0.9663,0.9663,0.9613,0.9656,0.9656,0.9656,0.9656,0.9656,0,0.9055,0.9087,0.9129,0.9186,0.9223,0.9236,0.9283,0.9312,0.9357,0.9399,0.944,0.9498,0.9546,0.9591,0.9641,0.9666,0.9675,0.9678,0.9676,0.9683,0.9658,0.9647,0.9669,0.9669,0.9669,0.9669,0.9669,0.9669,0.9074,0.9123,0.9147,0.9214,0.9246,0.9296,0.9322,0.9357,0.9391,0.9454,0.9495,0.9524,0.9567,0.9621,0.9667,0.9679,0.9696,0.9697,0.9711,0.9687,0.9685,0.9683,0.9673,0.97,0.97,0.9733,0.9733,0.9733]}]]